Date,TemperatureHighF,TemperatureAvgF,TemperatureLowF,DewpointHighF,DewpointAvgF,DewpointLowF,HumidityHigh,HumidityAvg,HumidityLow,PressureMaxIn,PressureMinIn,WindSpeedMaxMPH,WindSpeedAvgMPH,GustSpeedMaxMPH,PrecipitationSumIn
2013-1-1,28,24,19,23,16,11,93,75,58,0.00,40.00,23,18,35,0.00
2013-1-2,25,20,15,17,10,6,84,67,47,0.00,40.00,23,17,40,0.00
2013-1-3,43,32,20,9,0,-5,61,29,13,0.00,40.00,23,16,30,0.00
2013-1-4,42,38,33,15,5,-11,46,27,13,0.00,40.00,27,17,38,0.00
2013-1-5,36,31,26,19,17,14,68,56,46,0.00,40.00,18,15,28,0.00
2013-1-6,40,36,28,19,9,-7,51,34,13,0.00,40.00,22,16,27,0.00
2013-1-7,39,34,31,25,18,15,72,53,43,0.00,40.00,18,12,25,0.00
2013-1-8,40,35,28,24,18,11,65,49,39,0.00,40.00,27,18,41,0.00
2013-1-9,51,42,29,24,19,14,59,41,23,0.00,40.00,23,19,32,0.00
2013-1-10,50,34,14,25,18,4,96,57,18,0.00,40.00,19,13,26,0.00
2013-1-11,8,3,-1,4,-2,-6,85,80,78,0.00,40.00,16,13,23,0.00
2013-1-12,11,4,-1,7,0,-6,83,80,78,0.00,40.00,12,7,19,0.00
2013-1-13,11,8,5,7,4,1,84,83,80,0.00,40.00,19,11,26,0.00
2013-1-14,17,11,8,7,3,-1,84,69,50,0.00,40.00,24,18,34,0.00
2013-1-15,32,26,16,21,17,2,88,71,53,0.00,40.00,33,28,47,0.00
2013-1-16,40,35,31,20,18,15,61,50,41,0.00,40.00,35,22,54,0.00
2013-1-17,45,37,31,18,15,13,57,41,27,0.00,40.00,27,19,35,0.00
2013-1-18,48,43,39,16,12,10,33,28,24,0.00,40.00,25,19,39,0.00
2013-1-19,40,31,24,22,17,12,81,58,33,0.00,40.00,19,12,26,0.00
2013-1-20,33,14,4,19,9,-1,92,81,49,0.00,40.00,25,9,32,0.00
2013-1-21,30,17,7,18,10,3,86,77,48,0.00,40.00,14,6,18,0.00
2013-1-22,44,35,29,15,10,6,50,35,25,0.00,40.00,18,11,24,0.00
2013-1-23,30,20,12,16,12,7,90,73,37,0.00,40.00,22,9,29,0.00
2013-1-24,47,39,24,23,16,7,72,41,20,0.00,40.00,22,15,31,0.00
2013-1-25,48,40,31,22,19,16,55,43,32,0.00,40.00,16,12,19,0.00
2013-1-26,54,46,42,26,22,17,46,38,31,0.00,40.00,16,10,19,0.00
2013-1-27,42,31,26,31,27,22,99,85,45,0.00,40.00,21,11,32,0.00
2013-1-28,31,26,23,24,20,8,95,79,53,0.00,40.00,16,12,20,0.08
2013-1-29,24,13,-3,18,5,-8,87,71,51,0.00,40.00,26,15,35,0.01
2013-1-30,25,14,-3,22,10,-8,91,84,70,0.00,40.00,23,16,32,0.00
2013-1-31,29,10,-6,24,5,-12,88,81,75,0.00,40.00,23,12,26,0.00
2013-2-1,34,32,30,32,29,24,97,88,77,0.00,40.00,20,16,29,0.02
2013-2-2,39,33,29,27,22,18,89,63,50,0.00,40.00,24,18,37,0.01
2013-2-3,44,37,32,22,18,12,62,45,29,0.00,40.00,28,18,35,0.00
2013-2-4,42,37,32,24,20,16,57,50,41,0.00,40.00,22,15,32,0.00
2013-2-5,45,38,31,25,24,21,74,57,44,0.00,40.00,19,12,30,0.00
2013-2-6,44,39,33,23,20,16,53,45,37,0.00,40.00,17,13,26,0.00
2013-2-7,41,35,29,21,17,13,56,48,37,0.00,40.00,18,11,25,0.00
2013-2-8,42,35,29,22,18,11,71,49,36,0.00,40.00,9,6,14,0.00
2013-2-9,34,30,26,24,21,18,82,71,60,0.00,40.00,12,6,23,0.00
2013-2-10,27,20,14,23,16,11,94,86,75,0.00,40.00,24,16,39,0.00
2013-2-11,31,22,14,11,7,0,88,56,30,0.00,40.00,26,17,34,0.00
2013-2-12,36,30,24,20,14,9,60,52,44,0.00,40.00,23,18,33,0.00
2013-2-13,39,32,24,30,22,14,96,68,47,0.00,40.00,31,19,43,0.02
2013-2-14,26,23,20,22,12,6,92,64,42,0.00,40.00,21,15,35,0.02
2013-2-15,36,27,18,21,18,11,92,70,53,0.00,40.00,27,12,35,0.00
2013-2-16,48,40,32,24,21,18,61,46,36,0.00,40.00,26,18,37,0.00
2013-2-17,42,34,26,30,22,14,95,68,31,0.00,40.00,24,18,39,0.01
2013-2-18,23,20,15,21,17,10,93,88,79,0.00,40.00,22,11,37,0.01
2013-2-19,24,18,14,15,12,9,86,78,67,0.00,40.00,23,14,30,0.00
2013-2-20,24,19,15,17,13,11,89,78,67,0.00,40.00,10,6,13,0.00
2013-2-21,33,22,16,18,15,11,90,78,54,0.00,40.00,14,7,16,0.00
2013-2-22,36,29,23,19,14,5,82,55,36,0.00,40.00,18,14,25,0.00
2013-2-23,38,31,25,30,19,9,96,65,36,0.00,40.00,21,14,29,0.00
2013-2-24,33,28,24,24,20,12,94,73,53,0.00,40.00,22,15,34,0.02
2013-2-25,42,33,24,20,12,5,55,42,28,0.00,40.00,18,14,28,0.01
2013-2-26,36,30,22,28,21,16,96,71,44,0.00,40.00,22,16,36,0.00
2013-2-27,37,28,20,19,15,11,85,60,37,0.00,40.00,14,9,21,0.00
2013-2-28,37,32,27,22,18,11,76,58,40,0.00,40.00,20,13,33,0.00
2013-3-1,46,38,28,29,21,8,64,51,40,0.00,40.00,18,13,25,0.00
2013-3-2,55,48,42,29,26,22,52,44,33,0.00,40.00,22,16,32,0.00
2013-3-3,56,41,25,31,26,22,96,58,38,0.00,40.00,33,11,49,0.00
2013-3-4,24,16,10,20,11,6,88,81,70,0.00,40.00,34,24,51,0.00
2013-3-5,27,18,8,15,10,3,86,69,55,0.00,40.00,18,11,23,0.00
2013-3-6,39,29,20,24,17,10,70,60,50,0.00,40.00,18,11,24,0.00
2013-3-7,44,38,33,28,24,19,71,57,45,0.00,40.00,20,11,31,0.00
2013-3-8,44,36,30,29,25,21,80,66,52,0.00,40.00,20,11,29,0.00
2013-3-9,39,31,24,29,22,14,97,70,43,0.00,40.00,20,14,33,0.00
2013-3-10,46,36,21,21,17,10,65,47,37,0.00,40.00,14,9,21,0.00
2013-3-11,41,32,25,32,20,11,93,63,42,0.00,40.00,20,14,41,0.02
2013-3-12,38,29,19,18,15,11,78,58,41,0.00,40.00,17,10,26,0.01
2013-3-13,61,50,37,28,24,17,46,36,26,0.00,40.00,27,16,37,0.00
2013-3-14,62,54,45,29,26,23,44,34,27,0.00,40.00,19,9,30,0.00
2013-3-15,59,49,28,28,25,19,94,41,21,0.00,40.00,27,16,47,0.00
2013-3-16,44,31,23,33,26,22,98,85,58,0.00,40.00,15,7,17,0.00
2013-3-17,35,28,15,31,25,12,96,89,77,0.00,40.00,34,21,54,0.01
2013-3-18,30,19,6,23,13,1,87,76,60,0.00,40.00,20,13,34,0.02
2013-3-19,30,24,17,19,14,9,87,67,46,0.00,40.00,15,9,20,0.01
2013-3-20,45,33,21,21,15,10,66,49,33,0.00,40.00,22,18,31,0.01
2013-3-21,38,32,27,30,24,15,98,76,39,0.00,40.00,24,15,33,0.02
2013-3-22,30,23,17,25,18,12,93,81,58,0.00,40.00,20,13,26,0.01
2013-3-23,23,17,11,15,8,4,91,68,47,0.00,40.00,20,15,31,0.00
2013-3-24,17,13,10,11,8,6,89,80,66,0.00,40.00,14,10,23,0.00
2013-3-25,38,25,10,12,8,4,86,52,31,0.00,40.00,16,10,18,0.00
2013-3-26,48,37,29,17,11,3,46,33,23,0.00,40.00,15,10,19,0.00
2013-3-27,55,42,34,29,17,12,45,37,23,0.00,40.00,11,8,15,0.00
2013-3-28,59,54,48,28,25,20,39,32,26,0.00,40.00,14,10,18,0.00
2013-3-29,57,50,43,35,26,19,74,40,32,0.00,40.00,17,13,26,0.00
2013-3-30,52,44,38,37,27,-100,82,55,33,0.00,40.00,21,14,42,0.01
2013-3-31,49,41,31,27,23,19,72,49,36,0.00,40.00,23,15,36,0.01
2013-4-1,50,40,30,26,22,20,77,52,31,0.00,40.00,17,11,21,0.00
2013-4-2,63,48,37,22,19,15,49,33,19,0.00,40.00,16,12,21,0.00
2013-4-3,60,50,38,31,23,15,62,36,25,0.00,40.00,23,16,34,0.00
2013-4-4,53,43,32,31,28,25,79,55,38,0.00,40.00,20,12,26,0.00
2013-4-5,63,51,42,40,33,26,83,52,31,0.00,40.00,21,14,36,0.08
2013-4-6,59,50,42,37,28,23,73,46,26,0.00,40.00,20,13,28,0.08
2013-4-7,57,46,39,39,33,26,93,64,32,0.00,40.00,18,10,25,0.09
2013-4-8,40,20,13,38,18,10,99,91,88,0.00,40.00,20,13,33,0.27
2013-4-9,21,15,10,19,8,-100,90,84,85,0.00,40.00,9,5,12,0.00
2013-4-10,34,24,13,27,18,10,88,81,63,0.00,40.00,20,12,25,0.14
2013-4-11,43,35,26,36,27,14,86,72,60,0.00,40.00,25,14,39,0.01
2013-4-12,40,34,29,32,27,22,98,78,57,0.00,40.00,23,13,40,0.03
2013-4-13,48,36,30,35,28,22,100,76,54,0.00,40.00,21,14,32,0.02
2013-4-14,31,24,17,31,23,15,100,95,91,0.00,40.00,28,20,44,0.02
2013-4-15,24,20,16,22,18,14,94,92,91,0.00,40.00,14,11,24,0.21
2013-4-16,24,20,18,22,18,16,93,92,90,0.00,40.00,13,8,16,0.01
2013-4-17,24,20,17,22,18,15,93,91,89,0.00,40.00,13,8,21,0.02
2013-4-18,42,29,18,27,22,16,94,76,48,0.00,40.00,16,11,24,0.02
2013-4-19,51,40,34,35,30,21,92,67,48,0.00,40.00,15,8,32,0.02
2013-4-20,53,44,36,39,35,27,99,72,41,0.00,40.00,22,13,38,0.17
2013-4-21,41,30,24,36,29,23,100,96,75,0.00,40.00,16,12,25,0.09
2013-4-22,28,23,18,24,20,16,97,89,79,0.00,40.00,14,10,22,0.07
2013-4-23,44,31,20,30,17,10,96,61,28,0.00,40.00,17,13,29,0.01
2013-4-24,45,35,28,28,25,20,97,69,39,0.00,40.00,21,15,35,0.00
2013-4-25,61,50,37,26,20,18,65,32,19,0.00,40.00,21,15,39,0.00
2013-4-26,66,58,49,29,24,20,35,28,20,0.00,40.00,17,11,26,0.00
2013-4-27,73,62,54,29,24,19,33,24,14,0.00,40.00,29,16,42,0.00
2013-4-28,64,55,47,37,32,23,62,43,21,0.00,40.00,18,12,26,0.00
2013-4-29,59,50,40,39,35,24,83,60,33,0.00,40.00,21,12,36,0.15
2013-4-30,41,35,28,26,19,15,64,52,37,0.00,40.00,18,14,31,0.21
2013-5-1,44,34,23,21,14,8,87,49,25,0.00,40.00,10,7,18,0.00
2013-5-2,56,45,33,22,15,9,53,32,19,0.00,40.00,17,10,24,0.00
2013-5-3,63,52,44,32,21,14,52,31,18,0.00,40.00,17,12,20,0.00
2013-5-4,54,47,41,42,34,22,94,65,36,0.00,40.00,13,8,22,0.07
2013-5-5,61,52,44,24,20,15,37,28,23,0.00,40.00,16,10,19,0.04
2013-5-6,69,58,47,30,25,19,35,28,21,0.00,40.00,16,12,21,0.00
2013-5-7,73,62,51,35,29,26,41,29,21,0.00,40.00,18,12,25,0.00
2013-5-8,66,57,45,40,34,26,75,44,27,0.00,40.00,14,8,21,0.00
2013-5-9,68,58,48,47,40,34,66,51,38,0.00,40.00,11,7,20,0.00
2013-5-10,67,57,45,43,34,18,63,42,30,0.00,40.00,21,12,35,0.00
2013-5-11,68,56,45,34,25,-100,40,32,24,0.00,40.00,16,7,20,0.00
2013-5-12,80,69,54,41,36,27,40,30,21,0.00,40.00,18,9,23,0.00
2013-5-13,86,77,67,42,35,29,32,23,15,0.00,40.00,15,11,31,0.00
2013-5-14,76,64,54,47,38,24,76,42,17,0.00,40.00,23,12,46,0.00
2013-5-15,71,62,52,37,30,23,36,31,27,0.00,40.00,18,10,25,0.00
2013-5-16,67,50,45,51,25,-100,87,69,35,0.00,40.00,19,10,29,0.15
2013-5-17,63,53,49,56,45,-100,100,89,67,0.00,40.00,12,6,33,0.48
2013-5-18,60,53,49,54,51,49,100,93,78,0.00,40.00,16,6,22,0.43
2013-5-19,52,50,49,52,49,43,100,97,81,0.00,40.00,19,14,29,0.56
2013-5-20,46,45,43,46,44,39,100,97,78,0.00,40.00,26,19,38,0.70
2013-5-21,53,47,42,43,39,35,100,75,53,0.00,40.00,20,13,25,0.14
2013-5-22,54,47,40,46,42,40,100,85,63,0.00,40.00,29,17,41,0.01
2013-5-23,65,54,47,48,44,40,81,68,48,0.00,40.00,33,27,51,0.00
2013-5-24,68,59,50,51,38,27,100,52,24,0.00,40.00,32,15,45,0.00
2013-5-25,76,64,52,54,44,28,93,52,28,0.00,40.00,17,11,25,0.00
2013-5-26,71,62,53,55,51,46,92,69,52,0.00,40.00,24,14,35,0.01
2013-5-27,63,54,45,52,46,37,100,78,56,0.00,40.00,28,10,53,0.77
2013-5-28,65,58,48,48,44,38,83,61,46,0.00,40.00,18,9,33,0.01
2013-5-29,55,52,49,55,50,43,100,96,70,0.00,40.00,15,9,20,0.60
2013-5-30,50,47,43,50,47,43,100,100,100,0.00,40.00,27,20,43,3.00
2013-5-31,45,44,43,45,44,42,100,99,90,0.00,40.00,31,26,51,0.93
2013-6-1,62,52,42,49,44,40,100,77,53,0.00,40.00,22,11,33,0.32
2013-6-2,69,59,50,49,45,40,75,62,45,0.00,40.00,25,16,36,0.00
2013-6-3,58,50,41,48,42,34,100,74,47,0.00,40.00,38,24,62,0.09
2013-6-4,46,41,39,42,39,36,100,90,80,0.00,40.00,21,14,39,0.01
2013-6-5,61,51,40,42,39,36,92,65,47,0.00,40.00,17,8,21,0.00
2013-6-6,72,62,49,51,44,37,66,53,35,0.00,40.00,18,9,21,0.00
2013-6-7,78,66,58,55,48,43,69,54,33,0.00,40.00,13,9,51,0.18
2013-6-8,67,61,56,51,44,39,72,53,39,0.00,40.00,25,15,37,0.21
2013-6-9,78,67,55,48,45,42,66,46,29,0.00,40.00,17,11,21,0.00
2013-6-10,72,66,56,52,48,44,86,54,42,0.00,40.00,19,11,29,0.00
2013-6-11,74,64,54,58,53,46,100,69,52,0.00,40.00,25,14,37,0.32
2013-6-12,67,58,51,56,53,49,100,84,68,0.00,40.00,22,12,31,0.32
2013-6-13,73,64,56,59,54,49,83,70,56,0.00,40.00,33,19,43,0.02
2013-6-14,65,57,49,51,43,31,99,63,33,0.00,40.00,31,15,67,0.11
2013-6-15,71,62,52,39,33,29,47,35,21,0.00,40.00,16,11,25,0.00
2013-6-16,70,65,59,50,40,28,56,41,27,0.00,40.00,12,8,19,0.00
2013-6-17,74,64,56,51,47,41,64,54,42,0.00,40.00,16,8,22,0.00
2013-6-18,83,70,59,55,49,40,71,50,24,0.00,40.00,22,16,32,0.00
2013-6-19,83,72,62,57,50,41,54,46,34,0.00,40.00,26,21,47,0.00
2013-6-20,69,62,55,42,39,36,55,43,36,0.00,40.00,22,12,37,0.00
2013-6-22,56,52,49,55,51,48,100,98,95,0.00,40.00,21,9,30,0.41
2013-6-23,73,60,48,48,44,41,97,60,34,0.00,40.00,22,12,27,0.24
2013-6-24,80,70,59,56,51,39,71,53,28,0.00,40.00,18,12,25,0.00
2013-6-25,77,69,59,53,48,40,78,48,31,0.00,40.00,22,12,35,0.00
2013-6-26,79,71,64,51,47,44,50,43,33,0.00,40.00,16,11,28,0.00
2013-6-27,79,71,64,58,50,45,53,47,41,0.00,40.00,11,8,21,0.00
2013-6-28,83,74,63,52,48,43,53,42,32,0.00,40.00,12,8,24,0.00
2013-6-29,80,72,65,56,51,46,59,48,40,0.00,40.00,13,9,21,0.00
2013-6-30,82,72,63,52,49,45,56,45,35,0.00,40.00,15,11,20,0.00
2013-7-1,83,74,65,57,51,48,56,46,33,0.00,40.00,15,10,21,0.00
2013-7-2,86,77,69,55,50,44,50,39,28,0.00,40.00,13,9,18,0.00
2013-7-3,90,80,68,54,49,44,47,36,26,0.00,40.00,17,11,23,0.00
2013-7-4,85,75,65,68,60,53,98,62,42,0.00,40.00,21,9,26,0.02
2013-7-5,79,72,63,59,55,52,71,57,42,0.00,40.00,33,12,44,0.02
2013-7-6,78,69,61,58,53,49,79,59,43,0.00,40.00,14,8,21,0.00
2013-7-7,83,69,59,58,53,46,74,57,37,0.00,40.00,20,8,60,0.25
2013-7-8,87,71,61,60,53,44,73,55,32,0.00,40.00,30,15,56,0.25
2013-7-9,75,65,57,59,52,46,91,65,41,0.00,40.00,15,10,22,0.00
2013-7-10,89,75,61,57,45,-100,62,40,20,0.00,40.00,18,11,23,0.00
2013-7-11,97,82,74,57,49,41,50,34,16,0.00,40.00,21,15,30,0.00
2013-7-12,83,74,67,53,46,39,56,39,21,0.00,40.00,21,13,31,0.00
2013-7-13,89,74,62,55,50,43,64,46,20,0.00,40.00,25,15,37,0.00
2013-7-14,76,65,55,56,49,42,75,56,36,0.00,40.00,17,11,26,0.00
2013-7-15,90,73,60,65,58,54,86,64,35,0.00,40.00,26,15,33,0.02
2013-7-16,66,64,57,55,53,49,75,68,63,0.00,40.00,13,8,18,0.00
2013-7-17,81,70,59,64,60,55,94,72,52,0.00,40.00,10,6,15,0.00
2013-7-18,86,77,69,63,52,40,80,46,28,0.00,40.00,20,12,26,0.00
2013-7-19,88,78,68,46,43,40,37,30,23,0.00,40.00,14,7,19,0.00
2013-7-20,84,75,69,52,45,-100,46,35,25,0.00,40.00,15,8,19,0.00
2013-7-21,89,77,68,54,46,35,60,36,17,0.00,40.00,19,15,26,0.00
2013-7-22,90,76,63,52,47,33,63,39,15,0.00,40.00,17,11,26,0.00
2013-7-23,84,72,58,57,52,47,82,52,31,0.00,40.00,13,8,18,0.00
2013-7-24,86,76,65,55,50,43,61,43,24,0.00,40.00,15,10,19,0.00
2013-7-25,77,66,58,55,51,48,76,59,40,0.00,40.00,24,12,42,0.07
2013-7-26,74,62,50,52,48,43,88,60,43,0.00,40.00,17,12,24,0.15
2013-7-27,81,67,54,53,48,43,71,53,35,0.00,40.00,20,15,29,0.00
2013-7-28,76,67,61,56,51,46,78,56,43,0.00,40.00,17,11,27,0.33
2013-7-29,70,62,54,53,50,45,95,68,50,0.00,40.00,16,10,24,0.32
2013-7-30,74,65,56,58,52,47,84,63,52,0.00,40.00,15,8,20,0.00
2013-7-31,82,69,58,56,50,45,77,52,30,0.00,40.00,16,7,23,0.00
2013-8-1,84,73,61,55,48,42,57,41,29,0.00,40.00,22,13,31,0.27
2013-8-2,72,63,54,60,55,51,98,78,59,0.00,40.00,34,12,46,0.75
2013-8-3,78,66,57,63,59,56,99,80,56,0.00,40.00,19,9,27,0.03
2013-8-4,74,64,58,65,60,56,100,87,62,0.00,40.00,10,7,16,0.03
2013-8-5,85,72,62,64,54,41,91,58,21,0.00,40.00,21,10,34,0.00
2013-8-6,77,68,59,51,46,41,68,47,34,0.00,40.00,18,10,24,0.00
2013-8-7,80,68,58,52,48,41,67,51,35,0.00,40.00,13,8,21,0.46
2013-8-8,75,66,56,56,51,47,81,61,42,0.00,40.00,14,9,23,0.46
2013-8-9,72,65,56,57,52,48,77,63,51,0.00,40.00,14,7,19,0.00
2013-8-10,81,71,62,59,55,51,80,58,43,0.00,40.00,16,8,21,0.00
2013-8-11,84,72,61,63,56,49,88,60,32,0.00,40.00,15,9,24,0.00
2013-8-12,84,73,64,57,52,48,69,49,33,0.00,40.00,14,9,31,0.00
2013-8-13,78,68,59,57,50,-100,78,56,39,0.00,40.00,17,8,32,0.03
2013-8-14,79,71,63,54,50,42,67,48,34,0.00,40.00,15,10,22,0.00
2013-8-15,84,68,64,57,38,-100,60,42,23,0.00,40.00,14,5,17,0.00
2013-8-16,90,78,68,50,38,-100,50,28,13,0.00,40.00,21,14,28,0.00
2013-8-17,85,77,73,49,43,-100,38,30,24,0.00,40.00,22,14,31,0.00
2013-8-18,82,75,69,54,50,43,57,42,33,0.00,40.00,19,11,29,0.00
2013-8-19,90,76,71,50,36,-100,47,30,20,0.00,40.00,17,10,24,0.00
2013-8-20,87,78,72,45,39,-100,36,26,18,0.00,40.00,15,10,18,0.00
2013-8-21,81,74,66,54,46,35,60,38,24,0.00,40.00,14,10,24,0.00
2013-8-22,85,73,61,61,55,50,76,55,32,0.00,40.00,19,10,24,0.00
2013-8-23,92,79,67,56,51,41,66,40,19,0.00,40.00,27,11,49,0.06
2013-8-24,83,73,65,54,49,-100,66,45,31,0.00,40.00,17,9,24,0.09
2013-8-25,88,78,70,60,52,48,52,41,28,0.00,40.00,13,8,19,0.00
2013-8-26,89,82,76,50,45,42,40,28,20,0.00,40.00,17,12,29,0.00
2013-8-27,86,78,70,53,48,41,49,36,27,0.00,40.00,17,8,25,0.01
2013-8-28,89,84,74,59,54,47,39,35,29,0.00,40.00,16,9,30,0.00
2013-8-29,88,76,66,55,50,45,63,43,23,0.00,40.00,26,11,43,0.00
2013-8-30,92,79,68,55,46,34,49,34,15,0.00,40.00,17,12,25,0.00
2013-8-31,77,69,63,51,39,-100,51,35,24,0.00,40.00,18,11,26,0.00
2013-9-1,85,71,58,44,39,35,60,33,20,0.00,40.00,18,11,25,0.00
2013-9-2,91,79,67,50,42,39,41,29,19,0.00,40.00,17,13,24,0.00
2013-9-3,90,79,72,57,51,47,47,37,26,0.00,40.00,16,10,24,0.00
2013-9-4,89,79,72,61,52,48,61,40,28,0.00,40.00,17,9,27,0.00
2013-9-5,92,81,70,65,58,50,69,48,27,0.00,40.00,16,10,19,0.00
2013-9-6,90,78,67,61,55,51,67,47,28,0.00,40.00,20,10,36,0.02
2013-9-7,85,74,66,60,54,-100,80,53,40,0.00,40.00,13,8,21,0.02
2013-9-8,76,64,60,63,61,54,100,89,53,0.00,40.00,15,9,29,0.19
2013-9-9,72,61,54,55,49,44,98,67,39,0.00,40.00,22,13,31,0.01
2013-9-10,77,67,58,53,47,42,70,50,34,0.00,40.00,14,8,20,0.00
2013-9-11,80,71,64,47,44,41,52,39,29,0.00,40.00,13,9,24,0.00
2013-9-12,78,67,57,51,47,44,71,51,33,0.00,40.00,21,11,29,0.00
2013-9-13,79,67,59,61,54,50,99,66,44,0.00,40.00,20,13,30,0.20
2013-9-14,67,59,57,60,57,-100,100,94,72,0.00,40.00,17,11,26,0.32
2013-9-15,68,61,55,56,52,47,98,75,54,0.00,40.00,26,12,35,0.05
2013-9-16,81,67,54,55,50,47,86,59,34,0.00,40.00,27,15,35,0.00
2013-9-17,83,71,60,53,48,40,70,47,31,0.00,40.00,19,11,40,0.05
2013-9-18,58,55,49,53,50,42,90,82,73,0.00,40.00,20,13,29,0.14
2013-9-19,54,48,40,41,38,35,86,68,53,0.00,40.00,18,11,27,0.12
2013-9-20,70,57,47,41,35,30,69,46,25,0.00,40.00,19,11,23,0.00
2013-9-21,83,72,56,34,28,-100,36,22,15,0.00,40.00,16,11,21,0.00
2013-9-22,72,65,58,43,35,20,50,35,15,0.00,40.00,13,8,19,0.00
2013-9-23,66,58,49,46,37,25,87,50,27,0.00,40.00,20,12,32,0.18
2013-9-24,72,61,51,35,29,22,36,29,19,0.00,40.00,17,12,27,0.04
2013-9-25,60,50,43,47,40,28,99,74,30,0.00,40.00,19,11,29,0.16
2013-9-26,45,42,40,44,39,35,100,90,72,0.00,40.00,17,11,30,0.20
2013-9-27,40,38,37,37,35,32,96,90,76,0.00,40.00,19,10,23,0.20
2013-9-28,60,50,39,35,30,-100,74,49,36,0.00,40.00,23,15,35,0.01
2013-9-29,71,59,53,38,33,28,52,38,22,0.00,40.00,23,15,36,0.00
2013-9-30,71,55,49,45,35,29,76,48,30,0.00,40.00,30,16,52,0.00
2013-10-1,60,55,53,30,27,24,38,34,31,0.00,40.00,12,9,18,0.00
2013-10-2,55,48,40,35,30,23,72,51,33,0.00,40.00,16,10,29,0.00
2013-10-3,42,37,34,38,36,34,99,96,73,0.00,40.00,21,16,35,1.58
2013-10-4,34,30,28,34,29,28,99,98,97,0.00,40.00,19,15,27,0.70
2013-10-5,49,36,26,35,29,25,97,76,45,0.00,40.00,22,13,29,0.17
2013-10-6,63,53,44,36,32,29,56,46,37,0.00,40.00,25,16,33,0.02
2013-10-7,70,62,53,45,36,22,56,40,22,0.00,40.00,19,11,24,0.00
2013-10-8,63,53,47,44,30,26,54,42,29,0.00,40.00,16,10,26,0.00
2013-10-9,54,48,44,36,31,27,60,51,42,0.00,40.00,24,9,30,0.00
2013-10-10,56,49,43,41,36,27,75,60,47,0.00,40.00,21,11,30,0.00
2013-10-11,47,41,36,37,34,26,92,77,64,0.00,40.00,26,20,37,0.15
2013-10-12,49,41,34,33,27,-100,86,61,45,0.00,40.00,18,9,23,0.03
2013-10-13,47,41,36,38,33,27,98,73,59,0.00,40.00,18,12,24,0.08
2013-10-14,37,33,31,37,33,31,99,99,98,0.00,40.00,20,14,36,0.49
2013-10-15,44,37,31,32,28,25,99,72,52,0.00,40.00,13,9,17,0.22
2013-10-16,51,42,32,34,24,16,98,53,38,0.00,40.00,21,15,35,0.08
2013-10-17,37,33,30,32,28,22,99,85,57,0.00,40.00,15,10,23,0.16
2013-10-18,45,37,31,32,28,25,98,73,47,0.00,40.00,21,15,31,0.04
2013-10-19,56,47,42,31,26,-100,51,45,37,0.00,40.00,22,17,40,0.04
2013-10-20,47,39,34,38,33,30,96,80,53,0.00,40.00,20,13,37,0.12
2013-10-21,50,46,38,36,35,33,86,66,57,0.00,40.00,21,15,30,0.01
2013-10-22,58,51,43,40,37,34,76,58,48,0.00,40.00,19,9,29,0.00
2013-10-23,51,45,39,41,37,34,91,74,54,0.00,40.00,16,8,21,0.00
2013-10-24,55,45,39,38,36,34,88,71,52,0.00,40.00,14,6,18,0.00
2013-10-25,60,52,46,37,33,27,71,48,39,0.00,40.00,21,13,30,0.00
2013-10-26,63,52,42,36,27,-100,56,40,27,0.00,40.00,19,11,27,0.00
2013-10-27,57,50,35,31,26,20,82,42,26,0.00,40.00,22,12,29,0.00
2013-10-28,33,24,22,28,21,-100,95,92,83,0.00,40.00,24,17,32,0.00
2013-10-29,28,26,23,27,25,21,97,95,93,0.00,40.00,10,1,14,0.00
2013-10-30,44,35,27,38,21,-100,97,75,53,0.00,40.00,17,8,27,0.03
2013-10-31,47,41,35,35,28,23,79,61,47,0.00,40.00,26,19,45,0.04
2013-11-1,47,42,38,31,25,19,71,52,33,0.00,40.00,19,15,32,0.01
2013-11-2,53,45,38,31,24,-100,55,46,40,0.00,40.00,19,11,25,0.00
2013-11-3,51,39,29,33,23,15,87,53,33,0.00,40.00,21,15,32,0.00
2013-11-4,34,28,24,21,17,13,76,64,50,0.00,40.00,12,8,20,0.00
2013-11-5,38,30,24,21,15,9,80,55,35,0.00,40.00,13,9,20,0.00
2013-11-6,40,34,32,34,24,13,89,67,45,0.00,40.00,21,14,31,0.00
2013-11-7,47,41,33,29,25,22,80,56,41,0.00,40.00,20,14,26,0.00
2013-11-8,50,43,38,29,24,21,64,46,39,0.00,40.00,28,20,51,0.00
2013-11-9,43,37,33,26,21,-100,72,55,42,0.00,40.00,19,11,26,0.00
2013-11-10,47,36,22,27,24,21,96,65,44,0.00,40.00,19,11,26,0.00
2013-11-11,28,22,16,26,20,13,96,91,89,0.00,40.00,17,7,21,0.01
2013-11-12,58,45,27,31,29,26,96,59,30,0.00,40.00,19,14,22,0.04
2013-11-13,56,51,43,33,27,21,58,40,27,0.00,40.00,18,11,35,0.01
2013-11-14,46,40,36,25,22,19,58,50,39,0.00,40.00,18,12,23,0.00
2013-11-15,44,39,34,24,19,15,56,44,38,0.00,40.00,18,11,25,0.00
2013-11-16,43,37,31,29,20,-100,92,53,40,0.00,40.00,18,8,25,0.00
2013-11-17,36,31,26,29,22,15,97,72,42,0.00,40.00,21,14,35,0.01
2013-11-18,52,42,31,21,17,13,53,38,25,0.00,40.00,19,13,26,0.01
2013-11-19,54,50,46,27,22,10,41,33,22,0.00,40.00,17,12,25,0.00
2013-11-20,31,12,4,19,8,-1,93,85,60,0.00,40.00,19,11,27,0.00
2013-11-21,22,13,2,9,1,-4,81,60,40,0.00,40.00,18,10,21,0.00
2013-11-22,33,26,17,7,3,-12,47,36,24,0.00,40.00,22,12,31,0.00
2013-11-23,42,32,24,12,7,-100,45,35,25,0.00,40.00,21,12,25,0.00
2013-11-24,48,39,32,19,11,3,53,33,18,0.00,40.00,21,14,29,0.00
2013-11-25,36,31,26,21,17,11,74,56,40,0.00,40.00,11,7,17,0.00
2013-11-26,40,34,23,22,16,11,62,48,34,0.00,40.00,18,12,22,0.00
2013-11-27,49,39,30,22,19,14,69,47,24,0.00,40.00,19,12,29,0.00
2013-11-28,44,36,29,23,18,15,61,49,37,0.00,40.00,20,16,27,0.00
2013-11-29,53,46,41,26,21,19,50,36,27,0.00,40.00,21,14,28,0.00
2013-11-30,46,41,38,28,23,-100,55,49,39,0.00,40.00,14,10,21,0.00
2013-12-1,45,42,39,35,28,25,70,56,46,0.00,40.00,21,13,31,0.00
2013-12-2,42,34,19,33,30,17,98,89,55,0.00,40.00,22,11,28,0.37
2013-12-3,17,8,0,15,4,-5,91,84,79,0.00,40.00,21,17,34,0.01
2013-12-4,0,-3,-8,-5,-9,-14,79,76,74,0.00,40.00,21,17,32,0.00
2013-12-5,-1,-7,-11,-8,-14,-17,73,72,71,0.00,40.00,14,6,21,0.00
2013-12-6,-8,-14,-18,-16,-21,-26,72,68,66,0.00,40.00,10,5,15,0.00
2013-12-7,-8,-15,-19,-16,-24,-100,69,66,65,0.00,40.00,9,4,13,0.00
2013-12-8,4,-5,-19,-1,-11,-27,80,74,65,0.00,40.00,27,15,33,0.00
2013-12-9,18,9,-2,15,5,-7,89,82,77,0.00,40.00,36,22,59,0.00
2013-12-10,22,15,4,20,10,-1,90,81,62,0.00,40.00,23,15,36,0.00
2013-12-11,29,20,5,14,8,1,87,62,42,0.00,40.00,24,16,32,0.00
2013-12-12,42,36,28,18,13,6,46,37,31,0.00,40.00,18,15,26,0.00
2013-12-13,38,32,30,30,22,13,95,68,36,0.00,40.00,22,13,30,0.00
2013-12-14,39,34,29,25,20,-100,76,59,47,0.00,40.00,26,19,41,0.00
2013-12-15,46,43,36,23,21,20,56,43,35,0.00,40.00,25,19,36,0.00
2013-12-16,44,34,26,26,23,19,88,63,40,0.00,40.00,23,12,42,0.00
2013-12-17,52,38,23,24,19,11,88,52,27,0.00,40.00,21,15,31,0.00
2013-12-18,50,41,25,25,21,17,97,50,28,0.00,40.00,21,12,29,0.00
2013-12-19,23,2,-3,22,-3,-9,97,80,75,0.00,40.00,10,7,16,0.00
2013-12-20,24,18,1,6,3,-4,79,54,41,0.00,40.00,16,12,27,0.00
2013-12-21,24,18,7,20,10,-100,89,74,43,0.00,40.00,19,11,27,0.00
2013-12-22,10,6,3,5,2,-1,85,81,75,0.00,40.00,9,5,13,0.00
2013-12-23,41,17,4,26,8,-1,81,70,51,0.00,40.00,21,14,24,0.00
2013-12-24,37,31,29,32,26,17,99,82,58,0.00,40.00,21,16,47,0.09
2013-12-25,39,31,24,18,13,8,65,48,30,0.00,40.00,27,19,39,0.02
2013-12-26,45,40,36,25,20,12,51,44,34,0.00,40.00,24,19,35,0.00
2013-12-27,56,48,42,26,22,16,51,37,21,0.00,40.00,23,17,33,0.00
2013-12-28,48,18,1,22,6,-100,92,65,32,0.00,40.00,25,15,44,0.00
2013-12-29,31,22,5,20,10,0,80,60,47,0.00,40.00,20,13,27,0.00
2013-12-30,36,30,27,28,23,17,94,76,45,0.00,40.00,24,13,34,0.00
2013-12-31,40,33,23,31,25,18,98,76,46,0.00,40.00,22,11,42,0.02
2014-1-1,27,25,20,25,23,19,96,92,79,0.00,40.00,16,11,22,0.00
2014-1-2,40,34,25,23,20,15,75,57,46,0.00,40.00,23,18,31,0.05